Skip Page Navigation
NASA JPL Caltech
NASA Logo - Jet Propulsion Laboratory + View the NASA Portal
+ Near-Earth Object (NEO) Program
Search JPL
JPL Home Earth Solar System Stars & Galaxies Technology
JPL Solar System Dynamics
BODIES ORBITS EPHEMERIDES TOOLS PHYSICAL DATA DISCOVERY FAQ SITE MAP
JPL Small-Body Database Browser
Search: [ help ]  
153311 (2001 MG1)
Classification: Apollo [NEO, PHA]          SPK-ID: 2153311
Ephemeris | Orbit Diagram | Orbital Elements | Physical Parameters | Discovery Circumstances | Close-Approach Data ]

[ hide orbit diagram ]
Orbit Diagram
Note: Make sure you have Java enabled on your browser to see the applet. This applet is provided as a 3D orbit visualization tool. The applet was implemented using 2-body methods, and hence should not be used for determining accurate long-term trajectories (over several years or decades) or planetary encounter circumstances. For accurate long-term ephemerides, please instead use our Horizons system.
Orbit Viewer

Additional Notes: the orbits shown in the applet are color coded. The planets are white lines, and the asteroid/comet is a blue line. The bright white line indicates the portion of the orbit that is above the ecliptic plane, and the darker portion is below the ecliptic plane. Likewise for the asteroid/comet orbit, the light blue indicates the portion above the ecliptic plane, and the dark blue the portion below the ecliptic plane.

Orbit Viewer applet originally written and kindly provided by Osamu Ajiki (AstroArts), and further modified by Ron Baalke (JPL).


Orbital Elements at Epoch 2456400.5 (2013-Apr-18.0) TDB
Reference: JPL 54 (heliocentric ecliptic J2000)
 Element Value Uncertainty (1-sigma)   Units 
e .6429227185006147 1.1646e-07  
a 2.505675549956138 2.2375e-08 AU
q .8947198136978152 2.906e-07 AU
i 28.39920709707834 6.1129e-05 deg
node 142.4176692439388 6.9879e-05 deg
peri 218.4698285496837 6.7443e-05 deg
M 337.9116022785273 1.5645e-05 deg
tp 2456489.388871479958
(2013-Jul-15.88887148)
6.3989e-05 JED
period 1448.724082945902
3.97
1.9405e-05
5.313e-08
d
yr
n .2484945230343377 3.3285e-09 deg/d
Q 4.116631286214462 3.676e-08 AU
  Orbit Determination Parameters
   # obs. used (total)      149  
   data-arc span      7286 days (19.95 yr)  
   first obs. used      1989-07-01  
   last obs. used      2009-06-12  
   planetary ephem.      DE405  
   SB-pert. ephem.      SB405-CPV-2  
   condition code      0  
   fit RMS      .58678  
   data source      ORB  
   producer      Otto Matic  
   solution date      2013-Apr-29 15:39:22  

Additional Information
 Earth MOID = .0304789 AU 
 T_jup = 3.012 
[ show covariance matrix ]

Ephemeris | Orbit Diagram | Orbital Elements | Physical Parameters | Discovery Circumstances | Close-Approach Data ]

Physical Parameter Table
Parameter Symbol Value Units Sigma Reference Notes
absolute magnitude H 17.046 mag .70173 54 autocmod 2.5c

153311 (2001 MG1)          Discovered 2001-Jun-18 by NEAT at Palomar (644)
Reference: 20070402/Numbers.arcLast Updated: 2007-04-04

[ show close-approach data ]
Ephemeris | Orbit Diagram | Orbital Elements | Physical Parameters | Discovery Circumstances | Close-Approach Data ]
ABOUT SSD CREDITS/AWARDS PRIVACY/COPYRIGHT GLOSSARY LINKS
FirstGov 2013-May-23 13:30 UT
(server date/time)  
NASA Home Page
Site Manager:   Donald K. Yeomans
Webmaster  Alan B. Chamberlin